Location: Bowman Observatory
(41.0326°N, 73.6210°W)
Time: 07:13:58
(UTC-04:00)

Cosmos 2298 Rocket - Visible Passes

Search period start: 26 March 2017 00:00
Search period end: 05 April 2017 00:00
Orbit: 776 x 784 km, 74.0° (Epoch: 24 March)

Date Brightness Start Highest point End Pass type
(mag) Time Alt. Az. Time Alt. Az. Time Alt. Az.
26 Mar 6.2 04:30:36 10° N 04:35:05 26° ENE 04:39:32 10° ESE visible
26 Mar 4.5 06:12:33 10° NW 06:17:30 40° WSW 06:22:26 10° S visible
26 Mar 7.0 20:54:04 10° W 20:57:21 16° NW 21:00:39 10° NNW visible
27 Mar 6.7 03:57:47 10° NNE 04:01:21 18° NE 04:04:56 10° E visible
27 Mar 4.0 05:38:53 10° NNW 05:44:10 64° WSW 05:49:25 10° S visible
27 Mar 6.5 20:19:20 10° WSW 20:23:36 24° WNW 20:27:55 10° N visible
28 Mar 7.2 03:25:36 10° NNE 03:27:32 12° NE 03:29:29 10° ENE visible
28 Mar 4.1 05:05:23 10° NNW 05:10:45 81° ENE 05:16:05 10° SSE visible
28 Mar 5.9 19:45:05 10° SW 19:49:58 36° WNW 19:54:53 10° N visible
29 Mar 4.8 04:32:03 10° N 04:37:16 52° ENE 04:42:27 10° SE visible
30 Mar 5.6 03:58:51 10° N 04:03:42 34° ENE 04:08:30 10° SE visible
30 Mar 4.8 05:41:17 10° NW 05:45:54 30° W 05:50:30 10° SSW visible
30 Mar 7.2 20:23:43 10° WNW 20:26:04 13° NW 20:28:25 10° NNW visible
31 Mar 6.3 03:25:51 10° N 03:30:02 22° ENE 03:34:10 10° ESE visible
31 Mar 4.2 05:07:29 10° NNW 05:12:37 48° WSW 05:17:42 10° S visible
31 Mar 6.9 19:48:31 10° WSW 19:52:16 19° WNW 19:56:03 10° NNW visible
01 Apr 6.8 02:53:13 10° NNE 02:56:16 15° NE 02:59:19 10° E visible
01 Apr 3.9 04:33:54 10° NNW 04:39:15 78° WSW 04:44:33 10° SSE visible
02 Apr 4.3 04:00:28 10° NNW 04:05:48 68° ENE 04:11:06 10° SSE visible
02 Apr 5.6 05:44:40 10° WNW 05:47:27 14° W 05:50:14 10° SW visible
03 Apr 5.1 03:27:11 10° N 03:32:17 43° ENE 03:33:56 33° ESE visible
03 Apr 5.1 05:10:08 10° NW 05:14:17 23° W 05:14:18 23° W visible
04 Apr 5.8 02:54:04 10° N 02:58:40 28° ENE 02:59:19 28° ENE visible
04 Apr 4.9 04:36:10 10° NW 04:39:44 32° WNW 04:39:44 32° WNW visible
